Regional Weather Roundup
Issued by NWS

Home | Current Version | Previous Version | Graphics & Text | Print | Product List | Glossary On
Versions: 1 2 3 4 5 6 7 8 9 10 11 12 13 14 15 16 17 18 19 20 21 22 23 24 25 26 27 28 29 30 31 32 33 34 35 36 37 38 39 40 41 42 43 44 45 46 47 48 49 50
000
ASUS43 KIND 080209
RWRIN

WEATHER ROUNDUP FOR INDIANA
NATIONAL WEATHER SERVICE INDIANAPOLIS IN
900 PM EST SUN FEB 07 2016

NOTE: "FAIR" INDICATES FEW OR NO CLOUDS BELOW 12,000 FEET WITH NO
SIGNIFICANT WEATHER AND/OR OBSTRUCTIONS TO VISIBILITY.

* - STATION DOES NOT REPORT WEATHER SUCH AS PRECIPITATION OR FOG.

+ - STATION NOT QUALITY CONTROLLED BY THE NATIONAL WEATHER SERVICE.
    USE DATA WITH CAUTION...ESPECIALLY DEWPOINT AND RELATIVE
    HUMIDITY OBSERVATIONS.

INZ001>003-010>013-019-020-080300-
NORTHWEST INDIANA

CITY           SKY/WX    TMP DP  RH WIND       PRES   REMARKS
LA PORTE +     CLEAR     38  34  87 SW8       29.76S
MICHIGAN CITY+ CLEAR     36  32  87 SW6       29.76S
MONTICELLO +   PTCLDY    38  30  73 W7        29.79S
RENSSELAER +   PTCLDY    37  32  81 SW10      29.79F
VALPARAISO     CLEAR     38  31  76 W13       29.76F

$$

LMZ046-743>745-080300-
SOUTHERN LAKE MICHIGAN

STATION/POSITION TIME  TEMP    WIND        PRES    WAVE
                       AIR SEA DIR/SP/G            HT
                 (UTC) (F)     (DEG/KT/KT) (MB)    (FT)
BURNS HARBOR     0100   41     230/ 12/ 15 1008.5S
MICHIGAN CITY    0100   41     200/ 15/ 16   N/A

$$

INZ004-005-014>016-021>024-080300-
NORTH CENTRAL INDIANA

CITY           SKY/WX    TMP DP  RH WIND       PRES   REMARKS
GOSHEN         PTCLDY    39  32  76 SW10      29.75F
LOGANSPORT +   PTCLDY    36  30  80 W8        29.80S
PERU/GRISSOM   PTCLDY    37  32  84 W10       29.77F
ROCHESTER +    PTCLDY    41  32  70 SW6       29.78F
SOUTH BEND     PTCLDY    36  31  82 SW9       29.76S
WARSAW +       PTCLDY    37  32  81 W9        29.76F

$$

INZ006>009-017-018-025>027-080300-
NORTHEAST INDIANA

CITY           SKY/WX    TMP DP  RH WIND       PRES   REMARKS
ANGOLA *+      CLEAR     39  34  81 W7        29.74F
AUBURN +       CLOUDY    41  32  70 W8        29.76F
FORT WAYNE     MOCLDY    41  32  70 W13       29.77F
HUNTINGTON +   MOCLDY    41  30  64 W9        29.77F

$$

INZ028-029-035-036-043>045-051>053-080300-
WEST CENTRAL INDIANA

CITY           SKY/WX    TMP DP  RH WIND       PRES   REMARKS
GREENCASTLE +  PTCLDY    41  28  60 W3        29.82F
LAFAYETTE      PTCLDY    38  31  76 W6        29.80F
TERRE HAUTE    CLOUDY    44  31  60 W10       29.84F

$$

INZ030>032-037>040-046>048-054>057-064-065-080300-
CENTRAL INDIANA

CITY           SKY/WX    TMP DP  RH WIND       PRES   REMARKS
COLUMBUS       CLOUDY    46  28  49 S6        29.81F
FISHERS *+     CLOUDY    43  34  70 W9        29.80S
FRANKFORT +    PTCLDY    38  28  66 W10       29.82S
GREENWOOD *+   CLOUDY    46  32  57 NW10      29.82R
INDIANAPOLIS   CLOUDY    43  30  60 W10       29.80S
-EAGLE CREEK   PTCLDY    43  32  65 W12       29.81S
KOKOMO *+        N/A     39  30  70 W8        29.80S
MARION +       CLOUDY    38  27  64 W9        29.80S
MT COMFORT *+  CLOUDY    45  32  61 W20       29.81S
SHELBYVILLE    CLOUDY    44  31  60 S8        29.79F
ZIONSVILLE +   MOCLDY    40  32  73 W8        29.81S

$$

INZ033-034-041-042-049-050-058-059-080300-
EAST CENTRAL INDIANA

CITY           SKY/WX    TMP DP  RH WIND       PRES   REMARKS
MUNCIE         CLOUDY    47  31  53 W13       29.79S

$$

INZ060-061-067>069-081>083-085>088-080300-
SOUTHWEST INDIANA

CITY           SKY/WX    TMP DP  RH WIND       PRES   REMARKS
EVANSVILLE     CLOUDY    48  30  49 SW8       29.86F
HUNTINGBURG *+ CLOUDY    46  28  49 SW13      29.85F
WASHINGTON +   CLOUDY    47  30  52 W8        29.85S

$$

INZ062-063-066-070>080-084-089>092-080300-
SOUTH CENTRAL AND SOUTHEAST INDIANA

CITY           SKY/WX    TMP DP  RH WIND       PRES   REMARKS
BLOOMINGTON    CLOUDY    48  29  47 W8        29.82S
MADISON *+     CLOUDY    45  25  45 S7        29.85F
NORTH VERNON + CLOUDY    48  25  40 CALM      29.83F
SEYMOUR +      CLOUDY    46  30  53 S10       29.82F

$$




USA.gov is the U.S. government's official web portal to all federal, state and local government web resources and services.